Zurück zum Katalog

DELTA 1 DEB

AktivLEO
NORAD 10252·DEBRIS·🇺🇸 United States

Gestartet Jul 14, 1977 von Cape Canaveral Space Force Station

Loading…

Nächste Überflüge (nächste 24 Stunden)

TLE

AktuellSource: Space-Track

Epoche: Sep 14, 2026, 14:06 UTC

1 10252U 77065CD  26257.58814377  .00000926  00000-0  37468-3 0  9998
2 10252  28.8420  80.8070 0753922  57.2127 309.8803 13.27944332351739

Verfolge DELTA 1 DEB in Echtzeit mit AllMySat

Download on the App Store